Weather History for Casa Grande, AZ

Change the Weather History Date:

Thursday, January 2, 2014

  Actual Average Record
Temperature  
Mean Temperature 55 °F -  
Max Temperature 73 °F 62 °F 78 °F (2006)
Min Temperature 37 °F 37 °F 24 °F (2015)
Degree Days  
Heating Degree Days 10    
Growing Degree Days 5 (Base 50)    
Moisture  
Dew Point 30 °F    
Average Humidity 46    
Maximum Humidity 81    
Minimum Humidity 16    
Precipitation  
Precipitation 0.00 in - - ()
Sea Level Pressure  
Sea Level Pressure 30.10 in    
Wind  
Wind Speed 4 mph (NE)    
Max Wind Speed 15 mph    
Max Gust Speed -    
Visibility 10 miles    
Events      
Averages and records for this station are not official NWS values.
T = Trace of Precipitation, MM = Missing Value Source: NWS Daily Summary

Daily Weather History Graph

Daily Weather History Graph

Search for Another Location

Airport:

Trip Planner

Search our weather history database for the weather conditions in past years. The results will help you decide how hot, cold, wet, or windy it might be!

Date:

Astronomy

Jan. 02, 2014 Rise Set
Actual Time 7:30 AM MST 5:32 PM MST
Civil Twilight 7:02 AM MST 5:59 PM MST
Nautical Twilight 6:32 AM MST 6:30 PM MST
Astronomical Twilight 6:02 AM MST 7:00 PM MST
Moon 8:20 AM MST (1/2) 7:26 PM MST (1/2)
Length of Visible Light 10h 56m
Length of Day
10h 02m
Waxing Crescent, 3% of the Moon is Illuminated
Jan 2
Waxing Crescent
Jan 7
First Quarter
Jan 15
Full
Jan 23
Last Quarter
Jan 30
New

Hourly Weather History & Observations

Time (MST) Temp. Windchill Dew Point Humidity Pressure Visibility Wind Dir Wind Speed Gust Speed Precip Events Conditions
12:15 AM 42.8 °F - 33.8 °F 70% 30.13 in 10.0 mi Calm Calm - N/A   Clear
12:35 AM 41.0 °F 37.1 °F 32.0 °F 70% 30.14 in 10.0 mi ENE 5.8 mph - N/A   Clear
12:55 AM 42.8 °F 40.1 °F 32.0 °F 66% 30.13 in 10.0 mi NE 4.6 mph - N/A   Clear
1:15 AM 42.8 °F - 33.8 °F 70% 30.14 in 10.0 mi Calm Calm - N/A   Clear
1:35 AM 41.0 °F - 32.0 °F 70% 30.14 in 10.0 mi Calm Calm - N/A   Clear
1:55 AM 39.2 °F 35.9 °F 32.0 °F 75% 30.14 in 10.0 mi North 4.6 mph - N/A   Clear
2:15 AM 39.2 °F 35.9 °F 32.0 °F 75% 30.14 in 10.0 mi North 4.6 mph - N/A   Clear
2:35 AM 39.2 °F - 32.0 °F 75% 30.14 in 10.0 mi Calm Calm - N/A   Clear
2:55 AM 39.2 °F - 32.0 °F 75% 30.15 in 10.0 mi Calm Calm - N/A   Clear
3:15 AM 37.4 °F 34.9 °F 32.0 °F 81% 30.15 in 10.0 mi NNE 3.5 mph - N/A   Clear
3:35 AM 39.2 °F 35.9 °F 32.0 °F 75% 30.15 in 10.0 mi NE 4.6 mph - N/A   Clear
3:55 AM 37.4 °F 32.8 °F 30.2 °F 75% 30.15 in 10.0 mi NE 5.8 mph - N/A   Clear
4:15 AM 37.4 °F 32.8 °F 30.2 °F 75% 30.15 in 10.0 mi NE 5.8 mph - N/A   Clear
4:35 AM 37.4 °F 33.8 °F 32.0 °F 81% 30.15 in 10.0 mi NE 4.6 mph - N/A   Clear
4:55 AM 37.4 °F 33.8 °F 30.2 °F 75% 30.15 in 10.0 mi NE 4.6 mph - N/A   Clear
5:15 AM 37.4 °F 33.8 °F 30.2 °F 75% 30.15 in 10.0 mi NE 4.6 mph - N/A   Clear
5:35 AM 39.2 °F 34.2 °F 30.2 °F 70% 30.15 in 10.0 mi NE 6.9 mph - N/A   Clear
5:55 AM 39.2 °F 35.0 °F 30.2 °F 70% 30.15 in 10.0 mi NE 5.8 mph - N/A   Clear
6:15 AM 39.2 °F 35.9 °F 30.2 °F 70% 30.15 in 10.0 mi NE 4.6 mph - N/A   Clear
6:35 AM 39.2 °F - 30.2 °F 70% 30.15 in 10.0 mi Calm Calm - N/A   Clear
6:55 AM 42.8 °F - 30.2 °F 61% 30.15 in 10.0 mi Calm Calm - N/A   Clear
7:15 AM 39.2 °F - 30.2 °F 70% 30.16 in 10.0 mi Calm Calm - N/A   Clear
7:35 AM 39.2 °F - 30.2 °F 70% 30.16 in 10.0 mi Calm Calm - N/A   Clear
7:55 AM 39.2 °F - 30.2 °F 70% 30.16 in 10.0 mi Calm Calm - N/A   Clear
8:15 AM 41.0 °F - 32.0 °F 70% 30.16 in 10.0 mi Calm Calm - N/A   Clear
8:35 AM 42.8 °F - 33.8 °F 70% 30.17 in 10.0 mi Calm Calm - N/A   Clear
8:55 AM 44.6 °F - 33.8 °F 66% 30.17 in 10.0 mi Calm Calm - N/A   Clear
9:15 AM 46.4 °F 45.2 °F 33.8 °F 62% 30.18 in 10.0 mi SW 3.5 mph - N/A   Clear
9:35 AM 46.4 °F - 35.6 °F 66% 30.18 in 10.0 mi Calm Calm - N/A   Clear
9:55 AM 48.2 °F - 35.6 °F 62% 30.18 in 10.0 mi Calm Calm - N/A   Clear
10:15 AM 51.8 °F - 35.6 °F 54% 30.19 in 10.0 mi South 3.5 mph - N/A   Clear
10:35 AM 51.8 °F - 35.6 °F 54% 30.18 in 10.0 mi South 3.5 mph - N/A   Clear
10:55 AM 53.6 °F - 35.6 °F 51% 30.17 in 10.0 mi Calm Calm - N/A   Clear
11:15 AM 55.4 °F - 35.6 °F 47% 30.17 in 10.0 mi Calm Calm - N/A   Clear
11:35 AM 55.4 °F - 33.8 °F 44% 30.16 in 10.0 mi Calm Calm - N/A   Clear
11:55 AM 60.8 °F - 35.6 °F 39% 30.14 in 10.0 mi Calm Calm - N/A   Clear
12:15 PM 62.6 °F - 33.8 °F 34% 30.13 in 10.0 mi Calm Calm - N/A   Clear
12:35 PM 64.4 °F - 33.8 °F 32% 30.11 in 10.0 mi Calm Calm - N/A   Clear
12:55 PM 68.0 °F - 32.0 °F 26% 30.10 in 10.0 mi ENE 5.8 mph - N/A   Clear
1:15 PM 69.8 °F - 30.2 °F 23% 30.08 in 10.0 mi ENE 10.4 mph - N/A   Clear
1:35 PM 71.6 °F - 28.4 °F 20% 30.08 in 10.0 mi ENE 11.5 mph - N/A   Clear
1:55 PM 73.4 °F - 26.6 °F 18% 30.07 in 10.0 mi ENE 15.0 mph - N/A   Clear
2:15 PM 73.4 °F - 26.6 °F 18% 30.06 in 10.0 mi NE 15.0 mph - N/A   Clear
2:35 PM 73.4 °F - 26.6 °F 18% 30.05 in 10.0 mi ENE 12.7 mph - N/A   Clear
2:55 PM 73.4 °F - 24.8 °F 16% 30.05 in 10.0 mi ENE 10.4 mph - N/A   Clear
3:15 PM 73.4 °F - 26.6 °F 18% 30.05 in 10.0 mi ENE 13.8 mph - N/A   Clear
3:35 PM 73.4 °F - 26.6 °F 18% 30.05 in 10.0 mi ENE 10.4 mph - N/A   Clear
3:55 PM 73.4 °F - 26.6 °F 18% 30.05 in 10.0 mi ENE 10.4 mph - N/A   Clear
4:15 PM 73.4 °F - 24.8 °F 16% 30.04 in 10.0 mi ENE 10.4 mph - N/A   Clear
4:35 PM 71.6 °F - 26.6 °F 19% 30.04 in 10.0 mi NE 6.9 mph - N/A   Clear
4:55 PM 69.8 °F - 26.6 °F 20% 30.04 in 10.0 mi NE 6.9 mph - N/A   Clear
5:15 PM 68.0 °F - 26.6 °F 21% 30.04 in 10.0 mi NNE 6.9 mph - N/A   Clear
5:35 PM 66.2 °F - 26.6 °F 23% 30.04 in 10.0 mi NE 8.1 mph - N/A   Clear
5:55 PM 64.4 °F - 26.6 °F 24% 30.04 in 10.0 mi NNE 8.1 mph - N/A   Clear
6:15 PM 62.6 °F - 28.4 °F 27% 30.04 in 10.0 mi NNE 8.1 mph - N/A   Clear
6:35 PM 64.4 °F - 26.6 °F 24% 30.04 in 10.0 mi NNE 8.1 mph - N/A   Clear
6:55 PM 64.4 °F - 26.6 °F 24% 30.04 in 10.0 mi NE 8.1 mph - N/A   Clear
7:15 PM 64.4 °F - 26.6 °F 24% 30.04 in 10.0 mi NNE 6.9 mph - N/A   Clear
7:35 PM 62.6 °F - 26.6 °F 26% 30.04 in 10.0 mi North 9.2 mph - N/A   Clear
7:55 PM 62.6 °F - 26.6 °F 26% 30.04 in 10.0 mi North 8.1 mph - N/A   Clear
8:15 PM 62.6 °F - 26.6 °F 26% 30.04 in 10.0 mi NE 10.4 mph - N/A   Clear
8:35 PM 62.6 °F - 24.8 °F 24% 30.04 in 10.0 mi NE 9.2 mph - N/A   Clear
8:55 PM 62.6 °F - 24.8 °F 24% 30.04 in 10.0 mi ENE 9.2 mph - N/A   Clear
9:15 PM 62.6 °F - 24.8 °F 24% 30.04 in 10.0 mi East 9.2 mph - N/A   Clear
9:35 PM 60.8 °F - 26.6 °F 27% 30.05 in 10.0 mi ENE 9.2 mph - N/A   Clear
9:55 PM 60.8 °F - 24.8 °F 25% 30.05 in 10.0 mi ENE 10.4 mph - N/A   Clear
10:15 PM 60.8 °F - 26.6 °F 27% 30.04 in 10.0 mi ENE 12.7 mph - N/A   Clear
10:35 PM 60.8 °F - 26.6 °F 27% 30.05 in 10.0 mi ENE 10.4 mph - N/A   Clear
10:55 PM 59.0 °F - 26.6 °F 29% 30.04 in 10.0 mi ENE 11.5 mph - N/A   Clear
11:15 PM 59.0 °F - 26.6 °F 29% 30.04 in 10.0 mi ENE 11.5 mph - N/A   Clear
11:35 PM 57.2 °F - 26.6 °F 31% 30.05 in 10.0 mi ENE 9.2 mph - N/A   Clear
11:55 PM 57.2 °F - 26.6 °F 31% 30.04 in 10.0 mi ENE 6.9 mph - N/A   Clear